Time,TemperatureF,DewpointF,PressureIn,WindDirection,WindDirectionDegrees,WindSpeedMPH,WindSpeedGustMPH,Humidity,HourlyPrecipIn,Conditions,Clouds,dailyrainin,SoftwareType,DateUTC
2013-02-11 00:05:00,38.5,20.0,30.18,SE,135,14.0,19.0,48,0.00,,,0.00,weatherlink.com 1.10,2013-02-11 05:05:00,
2013-02-11 00:20:00,38.7,21.0,30.18,SSE,149,8.0,18.0,49,0.00,,,0.00,weatherlink.com 1.10,2013-02-11 05:20:00,
2013-02-11 00:35:00,38.8,21.0,30.16,SSW,198,8.0,17.0,49,0.00,,,0.00,weatherlink.com 1.10,2013-02-11 05:35:00,
2013-02-11 00:50:00,38.9,22.0,30.16,South,169,13.0,14.0,50,0.00,,,0.00,weatherlink.com 1.10,2013-02-11 05:50:00,
2013-02-11 01:05:00,39.6,23.0,30.16,SSE,164,16.0,27.0,51,0.00,,,0.00,weatherlink.com 1.10,2013-02-11 06:05:00,
2013-02-11 01:20:00,38.5,26.0,30.16,SSE,155,10.0,33.0,60,0.00,,,0.00,weatherlink.com 1.10,2013-02-11 06:20:00,
2013-02-11 01:36:00,36.9,28.0,30.16,SSE,153,9.0,24.0,71,0.00,,,0.00,weatherlink.com 1.10,2013-02-11 06:36:00,
2013-02-11 01:51:00,35.5,30.0,30.15,South,174,11.0,18.0,79,0.00,,,0.00,weatherlink.com 1.10,2013-02-11 06:51:00,
2013-02-11 02:06:00,34.9,31.0,30.14,SE,146,4.0,14.0,84,0.01,,,0.01,weatherlink.com 1.10,2013-02-11 07:06:00,
2013-02-11 02:21:00,34.4,31.0,30.14,SSW,207,4.0,10.0,87,0.02,,,0.02,weatherlink.com 1.10,2013-02-11 07:21:00,
2013-02-11 02:36:00,34.9,31.0,30.12,SSW,197,12.0,16.0,87,0.02,,,0.02,weatherlink.com 1.10,2013-02-11 07:36:00,
2013-02-11 02:51:00,35.1,32.0,30.11,SE,145,4.0,15.0,87,0.03,,,0.03,weatherlink.com 1.10,2013-02-11 07:51:00,
2013-02-11 03:06:00,34.8,32.0,30.10,SSE,155,3.0,10.0,88,0.03,,,0.04,weatherlink.com 1.10,2013-02-11 08:06:00,
2013-02-11 03:21:00,34.6,32.0,30.08,SSE,155,2.0,10.0,89,0.05,,,0.07,weatherlink.com 1.10,2013-02-11 08:21:00,
2013-02-11 03:36:00,34.8,32.0,30.08,SE,143,6.0,15.0,89,0.04,,,0.07,weatherlink.com 1.10,2013-02-11 08:36:00,
2013-02-11 03:51:00,34.9,32.0,30.06,South,188,5.0,14.0,89,0.06,,,0.09,weatherlink.com 1.10,2013-02-11 08:51:00,
2013-02-11 04:06:00,34.9,32.0,30.06,ESE,111,5.0,11.0,90,0.08,,,0.12,weatherlink.com 1.10,2013-02-11 09:06:00,
2013-02-11 04:21:00,34.6,32.0,30.05,South,181,4.0,10.0,91,0.07,,,0.14,weatherlink.com 1.10,2013-02-11 09:21:00,
2013-02-11 04:36:00,34.6,32.0,30.04,SE,134,5.0,9.0,91,0.07,,,0.14,weatherlink.com 1.10,2013-02-11 09:36:00,
2013-02-11 04:51:00,34.8,33.0,30.04,SSE,155,8.0,11.0,91,0.05,,,0.14,weatherlink.com 1.10,2013-02-11 09:51:00,
2013-02-11 05:06:00,34.9,33.0,30.03,SE,145,6.0,9.0,91,0.03,,,0.15,weatherlink.com 1.10,2013-02-11 10:06:00,
2013-02-11 05:21:00,35.1,33.0,30.02,SE,139,4.0,11.0,91,0.01,,,0.15,weatherlink.com 1.10,2013-02-11 10:21:00,
2013-02-11 05:36:00,35.5,33.0,30.01,SE,143,7.0,15.0,91,0.01,,,0.15,weatherlink.com 1.10,2013-02-11 10:36:00,
2013-02-11 05:51:00,35.6,33.0,30.01,SSE,160,6.0,14.0,91,0.00,,,0.15,weatherlink.com 1.10,2013-02-11 10:51:00,
2013-02-11 06:06:00,35.8,34.0,30.01,SSE,162,8.0,14.0,91,0.00,,,0.15,weatherlink.com 1.10,2013-02-11 11:06:00,
2013-02-11 06:21:00,36.0,34.0,30.01,East,97,7.0,12.0,92,0.00,,,0.15,weatherlink.com 1.10,2013-02-11 11:21:00,
2013-02-11 06:36:00,36.1,34.0,30.00,SSE,163,7.0,12.0,92,0.00,,,0.15,weatherlink.com 1.10,2013-02-11 11:36:00,
2013-02-11 06:51:00,36.3,34.0,29.98,SSE,151,5.0,14.0,92,0.00,,,0.15,weatherlink.com 1.10,2013-02-11 11:51:00,
2013-02-11 07:06:00,36.5,34.0,29.98,East,96,7.0,12.0,92,0.00,,,0.15,weatherlink.com 1.10,2013-02-11 12:06:00,
2013-02-11 07:21:00,36.8,35.0,29.97,SSE,153,4.0,11.0,92,0.00,,,0.15,weatherlink.com 1.10,2013-02-11 12:21:00,
2013-02-11 07:36:00,37.1,35.0,29.97,SW,219,8.0,13.0,92,0.00,,,0.15,weatherlink.com 1.10,2013-02-11 12:36:00,
2013-02-11 07:51:00,37.6,36.0,29.95,SSE,160,8.0,16.0,92,0.00,,,0.15,weatherlink.com 1.10,2013-02-11 12:51:00,
2013-02-11 08:06:00,38.1,36.0,29.95,SSW,194,3.0,10.0,92,0.00,,,0.15,weatherlink.com 1.10,2013-02-11 13:06:00,
2013-02-11 08:21:00,38.4,36.0,29.96,SE,140,2.0,10.0,91,0.00,,,0.15,weatherlink.com 1.10,2013-02-11 13:21:00,
2013-02-11 08:37:00,38.7,36.0,29.95,SSE,160,4.0,8.0,91,0.00,,,0.15,weatherlink.com 1.10,2013-02-11 13:37:00,
2013-02-11 08:52:00,39.3,37.0,29.94,South,172,5.0,8.0,91,0.00,,,0.15,weatherlink.com 1.10,2013-02-11 13:52:00,
2013-02-11 09:07:00,40.3,38.0,29.94,SE,139,3.0,6.0,90,0.00,,,0.15,weatherlink.com 1.10,2013-02-11 14:07:00,
2013-02-11 09:22:00,41.3,38.0,29.95,SSW,195,2.0,5.0,89,0.00,,,0.15,weatherlink.com 1.10,2013-02-11 14:22:00,
2013-02-11 09:37:00,41.5,39.0,29.94,SSE,160,4.0,8.0,89,0.00,,,0.15,weatherlink.com 1.10,2013-02-11 14:37:00,
2013-02-11 09:52:00,42.3,39.0,29.94,SE,136,3.0,9.0,88,0.00,,,0.15,weatherlink.com 1.10,2013-02-11 14:52:00,
2013-02-11 10:07:00,42.5,39.0,29.92,SSE,155,4.0,11.0,88,0.00,,,0.15,weatherlink.com 1.10,2013-02-11 15:07:00,
2013-02-11 10:22:00,42.5,39.0,29.91,South,181,9.0,12.0,88,0.00,,,0.15,weatherlink.com 1.10,2013-02-11 15:22:00,
2013-02-11 10:37:00,43.2,40.0,29.91,South,169,10.0,11.0,87,0.00,,,0.15,weatherlink.com 1.10,2013-02-11 15:37:00,
2013-02-11 10:52:00,43.5,40.0,29.89,SSE,165,8.0,11.0,87,0.00,,,0.15,weatherlink.com 1.10,2013-02-11 15:52:00,
2013-02-11 11:07:00,44.1,41.0,29.88,SSE,149,8.0,10.0,87,0.00,,,0.15,weatherlink.com 1.10,2013-02-11 16:07:00,
2013-02-11 11:22:00,45.2,42.0,29.87,ESE,113,3.0,10.0,87,0.00,,,0.15,weatherlink.com 1.10,2013-02-11 16:22:00,
2013-02-11 11:37:00,46.4,42.0,29.86,SSE,158,5.0,14.0,85,0.00,,,0.15,weatherlink.com 1.10,2013-02-11 16:37:00,
2013-02-11 11:52:00,47.1,42.0,29.84,South,176,8.0,10.0,83,0.00,,,0.15,weatherlink.com 1.10,2013-02-11 16:52:00,
2013-02-11 12:07:00,48.1,43.0,29.83,South,172,3.0,10.0,83,0.00,,,0.15,weatherlink.com 1.10,2013-02-11 17:07:00,
2013-02-11 12:22:00,49.3,44.0,29.81,SE,128,10.0,12.0,81,0.00,,,0.15,weatherlink.com 1.10,2013-02-11 17:22:00,
2013-02-11 12:37:00,49.7,44.0,29.79,SSE,166,9.0,14.0,81,0.00,,,0.15,weatherlink.com 1.10,2013-02-11 17:37:00,
2013-02-11 12:52:00,49.8,44.0,29.78,SSE,150,2.0,10.0,81,0.00,,,0.15,weatherlink.com 1.10,2013-02-11 17:52:00,
2013-02-11 13:08:00,48.9,43.0,29.77,SSE,150,8.0,13.0,81,0.00,,,0.15,weatherlink.com 1.10,2013-02-11 18:08:00,
2013-02-11 13:22:00,48.1,43.0,29.76,SSE,158,8.0,14.0,82,0.00,,,0.15,weatherlink.com 1.10,2013-02-11 18:22:00,
2013-02-11 13:37:00,49.7,44.0,29.75,SSE,148,10.0,11.0,81,0.00,,,0.15,weatherlink.com 1.10,2013-02-11 18:37:00,
2013-02-11 13:52:00,50.9,45.0,29.75,SE,146,10.0,13.0,79,0.00,,,0.15,weatherlink.com 1.10,2013-02-11 18:52:00,
2013-02-11 14:08:00,51.7,45.0,29.75,ESE,112,6.0,14.0,78,0.00,,,0.15,weatherlink.com 1.10,2013-02-11 19:08:00,
2013-02-11 14:23:00,50.8,45.0,29.73,ESE,115,7.0,16.0,79,0.00,,,0.15,weatherlink.com 1.10,2013-02-11 19:23:00,
2013-02-11 14:38:00,51.2,45.0,29.72,ESE,110,7.0,19.0,80,0.00,,,0.15,weatherlink.com 1.10,2013-02-11 19:38:00,
2013-02-11 14:53:00,51.1,45.0,29.71,SE,139,6.0,13.0,80,0.00,,,0.15,weatherlink.com 1.10,2013-02-11 19:53:00,
2013-02-11 15:08:00,52.3,46.0,29.71,South,177,16.0,16.0,79,0.00,,,0.15,weatherlink.com 1.10,2013-02-11 20:08:00,
2013-02-11 15:23:00,52.9,46.0,29.70,SE,146,9.0,14.0,78,0.00,,,0.15,weatherlink.com 1.10,2013-02-11 20:23:00,
2013-02-11 15:38:00,53.0,46.0,29.70,SE,139,7.0,15.0,78,0.00,,,0.15,weatherlink.com 1.10,2013-02-11 20:38:00,
2013-02-11 15:53:00,52.9,46.0,29.70,SSE,165,7.0,14.0,78,0.00,,,0.15,weatherlink.com 1.10,2013-02-11 20:53:00,
2013-02-11 16:08:00,53.2,46.0,29.70,SSE,153,7.0,14.0,77,0.00,,,0.15,weatherlink.com 1.10,2013-02-11 21:08:00,
2013-02-11 16:23:00,53.2,46.0,29.69,ESE,114,3.0,11.0,77,0.00,,,0.15,weatherlink.com 1.10,2013-02-11 21:23:00,
2013-02-11 16:38:00,53.6,47.0,29.68,South,183,2.0,6.0,77,0.00,,,0.15,weatherlink.com 1.10,2013-02-11 21:38:00,
2013-02-11 17:09:00,54.1,47.0,29.67,SSE,154,3.0,7.0,76,0.00,,,0.15,weatherlink.com 1.10,2013-02-11 22:09:00,
2013-02-11 17:24:00,54.0,47.0,29.67,SSE,163,4.0,7.0,76,0.00,,,0.15,weatherlink.com 1.10,2013-02-11 22:24:00,
2013-02-11 17:39:00,53.9,47.0,29.67,SE,143,3.0,11.0,77,0.00,,,0.15,weatherlink.com 1.10,2013-02-11 22:39:00,
2013-02-11 17:54:00,53.7,47.0,29.67,South,177,4.0,8.0,77,0.00,,,0.15,weatherlink.com 1.10,2013-02-11 22:54:00,
2013-02-11 18:09:00,53.0,46.0,29.67,South,169,1.0,6.0,78,0.00,,,0.15,weatherlink.com 1.10,2013-02-11 23:09:00,
2013-02-11 18:24:00,52.3,46.0,29.68,WSW,245,4.0,6.0,78,0.00,,,0.15,weatherlink.com 1.10,2013-02-11 23:24:00,
2013-02-11 18:39:00,52.9,44.0,29.68,South,191,3.0,7.0,73,0.00,,,0.15,weatherlink.com 1.10,2013-02-11 23:39:00,
2013-02-11 19:09:00,60.5,25.0,29.69,SSE,167,4.0,21.0,26,0.00,,,0.15,weatherlink.com 1.10,2013-02-12 00:09:00,
2013-02-11 19:24:00,61.1,24.0,29.70,WSW,249,16.0,18.0,24,0.00,,,0.15,weatherlink.com 1.10,2013-02-12 00:24:00,
2013-02-11 19:39:00,60.5,22.0,29.71,West,276,27.0,27.0,23,0.00,,,0.15,weatherlink.com 1.10,2013-02-12 00:39:00,
2013-02-11 19:54:00,60.2,22.0,29.71,SW,232,13.0,25.0,23,0.00,,,0.15,weatherlink.com 1.10,2013-02-12 00:54:00,
2013-02-11 20:09:00,59.2,23.0,29.71,WSW,243,9.0,14.0,25,0.00,,,0.15,weatherlink.com 1.10,2013-02-12 01:09:00,
2013-02-11 20:24:00,58.6,22.0,29.73,West,273,19.0,25.0,24,0.00,,,0.15,weatherlink.com 1.10,2013-02-12 01:24:00,
2013-02-11 20:39:00,58.4,23.0,29.73,WSW,257,15.0,30.0,25,0.00,,,0.15,weatherlink.com 1.10,2013-02-12 01:39:00,
2013-02-11 20:54:00,57.8,22.0,29.74,WSW,256,7.0,23.0,25,0.00,,,0.15,weatherlink.com 1.10,2013-02-12 01:54:00,
2013-02-11 21:09:00,56.7,23.0,29.76,West,266,21.0,25.0,27,0.00,,,0.15,weatherlink.com 1.10,2013-02-12 02:09:00,
2013-02-11 21:24:00,54.9,28.0,29.77,NW,314,4.0,21.0,35,0.00,,,0.15,weatherlink.com 1.10,2013-02-12 02:24:00,
2013-02-11 21:39:00,52.7,29.0,29.78,WSW,255,11.0,15.0,41,0.00,,,0.15,weatherlink.com 1.10,2013-02-12 02:39:00,
2013-02-11 21:54:00,51.7,30.0,29.79,WNW,297,11.0,17.0,43,0.00,,,0.15,weatherlink.com 1.10,2013-02-12 02:54:00,
2013-02-11 22:09:00,50.3,31.0,29.80,West,270,12.0,21.0,47,0.00,,,0.15,weatherlink.com 1.10,2013-02-12 03:09:00,
2013-02-11 22:24:00,49.4,31.0,29.81,West,277,6.0,17.0,49,0.00,,,0.15,weatherlink.com 1.10,2013-02-12 03:24:00,
2013-02-11 22:39:00,48.4,31.0,29.82,WNW,288,6.0,16.0,51,0.00,,,0.15,weatherlink.com 1.10,2013-02-12 03:39:00,
2013-02-11 22:54:00,47.1,31.0,29.82,WNW,297,5.0,12.0,54,0.00,,,0.15,weatherlink.com 1.10,2013-02-12 03:54:00,
2013-02-11 23:09:00,46.5,30.0,29.83,WNW,291,5.0,11.0,54,0.00,,,0.15,weatherlink.com 1.10,2013-02-12 04:09:00,
2013-02-11 23:24:00,46.0,30.0,29.84,West,277,4.0,8.0,54,0.00,,,0.15,weatherlink.com 1.10,2013-02-12 04:24:00,
2013-02-11 23:39:00,45.8,30.0,29.84,WNW,295,8.0,13.0,54,0.00,,,0.15,weatherlink.com 1.10,2013-02-12 04:39:00,
2013-02-11 23:54:00,45.9,30.0,29.84,NW,314,2.0,10.0,54,0.00,,,0.15,weatherlink.com 1.10,2013-02-12 04:54:00,